Tracking 32412 objects as of 6-Dec-2025
HD Live streaming from Space Station
objects crossing your sky now

XTAR-EUR

Track XTAR-EUR now!
XTAR-EUR is classified as:


NORAD ID: 28542
Int'l Code: 2005-005A
Perigee: 36,131.8 km
Apogee: 36,179.1 km
Inclination: 3.8 °
Period: 1,454.6 minutes
Semi major axis: 42526 km
RCS: 6.3095 m2 (large)
Launch date: February 12, 2005
Source: United States (US)
Launch site: FRENCH GUIANA (FRGUI)

X-band; designed to be compatible with U.S. and NATO SATCOM systems.
Your satellite tracking list
Your tracking list is empty




NASA's NSSDC Master Catalog

Two Line Element Set (TLE):
1 28542U 05005A   25339.32549182  .00000067  00000-0  00000-0 0  9990
2 28542   3.8380  79.1473 0005558 187.1144 172.4882  0.98995182 76236
Source of the keplerian elements: AFSPC